USA 40 R/B, 20344

Orbit data source: Space-Track

USA 40 R/B, 20344 is space debris originally from a launch on Tue, 08 Aug 1989 UTC launched from the Air Force Eastern Test Range (AFETR). Debris objects in space refer to the collection of defunct objects orbiting the Earth. Examples of debris include non-operational satellites, rocket bodies, and fragments generated from explosions, collisions, or faulty payload assembly.

Loading next visibility...
Identifier
20344, 1989-061D
Orbit
Active
Country
Flag of USUS
Related business
Manufacturer
Thiokol/UT
Mission
Spacecraft
Bus & Motor
MM3-PKM, Unknown motor
Mass
Wet unknown, ~200 kg dry
Launch date (UTC)
1989-08-08 (37 years ago)
Launch vehicle
Unknown
Launch site
Air Force Eastern Test Range (AFETR)
Object type
Payload
Rocket body
Debris
Shape & HBR
Cyl + Cone, 1.3 m
Radar Cross Section
3.519 m², Large (>1 m²)

Expand to show TLE details & history
Last TLE update: 15 hours ago

TLE from 15 hours ago
0 USA 40 R/B
1 20344U 89061D   26094.00602384  .00000294  00000-0  22885-3 0  9994
2 20344  57.0309 320.9625 3565067 275.8509  45.4936  7.88942748206875
Epoch: 2026-04-04T00:08Z
TLE epoch observation values (Epoch: 2026-04-04T00:08:40.459Z)
Latitude
-0.00004°
Longitude
126.4619°
Altitude
2,605.481 km
Speed
7.167 km/s
True Right ascension
21h 23m 50s
True Declination
0° 00' 00"
Sunlit
Object was in daylight at epoch
Visualization orbit readout
Latitude
Unknown
Longitude
Unknown
Altitude
Unknown
Speed
Unknown
Apparent Right ascension
Unknown
Apparent Declination
Unknown
Sunlit
N/A
Visualization observer readout
Local Sidereal Time
20:50:08
Azimuth
Unknown
Elevation
Unknown
Doppler factor
Unknown
Orbital elements
Apogee altitude
8,080.107 km
Perigee altitude
480.497 km
Semi-major axis
10,658.439 km
Eccentricity
0.35651
Inclination
57.0309°
RAAN
320.9625°
Arg. of periapsis
275.8509°
True anomaly
84.23833°
Mean anomaly
45.4936°
Eccentric anomaly
63.82527°
Mean motion
1.97244 °/min
Orbital period
182.52 mins
BSTAR
0.00022885
Loading maneuver chart data...
Computing Atmospheric mass density...
Loading historical data...
Loading historical data...
Loading historical data...
Loading historical data...
Loading historical data...
Loading historical data...
Loading historical data...

Documentation

Showing up to 5 results
|